Weather History for Whiteman AFB, MO

Change the Weather History Date:

Friday, January 3, 2014

  Actual Average Record
Temperature  
Mean Temperature 17 °F -  
Max Temperature 35 °F 37 °F 71 °F (1997)
Min Temperature -1 °F 21 °F -1 °F (2014)
Degree Days  
Heating Degree Days 48    
Moisture  
Dew Point 9 °F    
Average Humidity 65    
Maximum Humidity 81    
Minimum Humidity 56    
Precipitation  
Precipitation 0.00 in - - ()
Sea Level Pressure  
Sea Level Pressure 30.20 in    
Wind  
Wind Speed 8 mph (South)    
Max Wind Speed 21 mph    
Max Gust Speed 29 mph    
Visibility 10 miles    
Events      
Averages and records for this station are not official NWS values.
T = Trace of Precipitation, MM = Missing Value Source: NWS Daily Summary

Daily Weather History Graph

Daily Weather History Graph

Search for Another Location

Airport:

Trip Planner

Search our weather history database for the weather conditions in past years. The results will help you decide how hot, cold, wet, or windy it might be!

Date:

Astronomy

Jan. 03, 2014 Rise Set
Actual Time 7:32 AM CST 5:05 PM CST
Civil Twilight 7:02 AM CST 5:34 PM CST
Nautical Twilight 6:29 AM CST 6:08 PM CST
Astronomical Twilight 5:57 AM CST 6:40 PM CST
Moon 9:00 AM CST (1/3) 8:12 PM CST (1/3)
Length of Visible Light 10h 31m
Length of Day
9h 32m
Waxing Crescent, 8% of the Moon is Illuminated
Jan 3
Waxing Crescent
Jan 7
First Quarter
Jan 15
Full
Jan 23
Last Quarter
Jan 30
New

Hourly Weather History & Observations

Time (CST) Temp. Windchill Dew Point Humidity Pressure Visibility Wind Dir Wind Speed Gust Speed Precip Events Conditions
12:58 AM 2.5 °F - -5.1 °F 71% 30.53 in 10.0 mi South 2.3 mph - N/A   Clear
1:58 AM -0.2 °F - -5.3 °F 79% 30.53 in 10.0 mi Calm Calm - N/A   Clear
2:58 AM -1.7 °F - -6.2 °F 81% 30.51 in 10.0 mi ENE 1.2 mph - N/A   Clear
3:58 AM 0.5 °F - -5.1 °F 77% 30.48 in 10.0 mi South 1.2 mph - N/A   Clear
4:58 AM -0.4 °F -13.4 °F -6.2 °F 77% 30.48 in 10.0 mi South 6.9 mph - N/A   Clear
5:58 AM 2.7 °F -9.7 °F -3.8 °F 74% 30.44 in 10.0 mi South 6.9 mph - N/A   Clear
6:58 AM 4.1 °F -3.2 °F -1.8 °F 76% 30.43 in 10.0 mi SSE 3.5 mph - N/A   Clear
7:58 AM 6.1 °F -4.3 °F -0.6 °F 74% 30.40 in 10.0 mi SSE 5.8 mph - N/A   Clear
8:58 AM 10.9 °F -1.8 °F 2.1 °F 68% 30.39 in 10.0 mi SSE 9.2 mph - N/A   Clear
9:58 AM 15.3 °F 1.4 °F 4.5 °F 62% 30.35 in 10.0 mi South 12.7 mph - N/A   Clear
10:58 AM 20.3 °F 8.3 °F 8.6 °F 61% 30.31 in 10.0 mi South 11.5 mph - N/A   Clear
11:58 AM 24.8 °F 12.9 °F 12.9 °F 61% 30.25 in 10.0 mi South 13.8 mph - N/A   Clear
12:58 PM 29.7 °F 18.2 °F 16.7 °F 59% 30.17 in 10.0 mi South 16.1 mph - N/A   Clear
1:58 PM 33.6 °F 22.6 °F 19.6 °F 56% 30.12 in 10.0 mi South 18.4 mph 24.2 mph N/A   Clear
2:58 PM 35.2 °F 25.8 °F 21.2 °F 57% 30.07 in 10.0 mi South 15.0 mph - N/A   Clear
3:58 PM 35.4 °F 24.9 °F 21.6 °F 57% 30.03 in 10.0 mi South 18.4 mph 21.9 mph N/A   Clear
4:58 PM 33.6 °F 22.6 °F 21.4 °F 61% 30.01 in 10.0 mi South 18.4 mph 24.2 mph N/A   Clear
5:58 PM 32.2 °F 20.7 °F 20.3 °F 62% 29.96 in 10.0 mi South 18.4 mph 26.5 mph N/A   Clear
6:58 PM 31.6 °F 20.0 °F 18.7 °F 59% 29.93 in 10.0 mi South 18.4 mph 28.8 mph N/A   Clear
7:58 PM 31.3 °F 20.3 °F 17.6 °F 57% 29.93 in 10.0 mi South 16.1 mph - N/A   Clear
8:58 PM 30.7 °F 18.1 °F 17.2 °F 57% 29.92 in 10.0 mi South 20.7 mph - N/A   Clear
9:58 PM 30.6 °F 19.0 °F 17.2 °F 58% 29.91 in 10.0 mi South 17.3 mph - N/A   Clear
10:58 PM 30.7 °F 18.1 °F 17.8 °F 59% 29.88 in 10.0 mi SSW 20.7 mph - N/A   Clear
11:58 PM 30.6 °F 18.2 °F 17.8 °F 59% 29.87 in 10.0 mi SSW 19.6 mph 26.5 mph N/A   Clear